PEGASUS DEB, 39913

Orbit data source: Space-Track

PEGASUS DEB, 39913 is space debris in LEO originally from a launch on Thu, 19 May 1994 UTC launched from the Air Force Western Test Range (AFWTR). Debris objects in space refer to the collection of defunct objects orbiting the Earth. Examples of debris include non-operational satellites, rocket bodies, and fragments generated from explosions, collisions, or faulty payload assembly.

Loading next visibility...
Identifier
39913, 1994-029AFL
Orbit
LEO
Country
Flag of USUS
Related business
Manufacturer
Unknown
Mission
Spacecraft
Bus & Motor
Unknown
Mass
Unknown
Launch date (UTC)
1994-05-19 (32 years ago)
Launch vehicle
Unknown
Launch site
Air Force Western Test Range (AFWTR)
Object type
Payload
Rocket body
Debris
Shape & HBR
Unknown shape, 0.1 m
Radar Cross Section
Small (<0.1 m²)

Expand to show TLE details & history
Last TLE update: 1 week ago

TLE from 1 week ago
0 PEGASUS DEB
1 39913U 94029AFL 26110.45974130  .00003190  00000-0  98466-3 0  9991
2 39913  81.5651 176.3961 0514809  95.5558 270.4520 13.84863136107618
Epoch: 2026-04-20T11:02Z
TLE epoch observation values (Epoch: 2026-04-20T11:02:01.648Z)
Latitude
-0.00005°
Longitude
162.33966°
Altitude
965.993 km
Speed
7.36 km/s
True Right ascension
11h 45m 35s
True Declination
0° 00' 00"
Sunlit
Object was in full shadow at epoch
Visualization orbit readout
Latitude
Unknown
Longitude
Unknown
Altitude
Unknown
Speed
Unknown
Apparent Right ascension
Unknown
Apparent Declination
Unknown
Sunlit
N/A
Visualization observer readout
Local Sidereal Time
16:26:34
Azimuth
Unknown
Elevation
Unknown
Doppler factor
Unknown
Orbital elements
Apogee altitude
1,320.814 km
Perigee altitude
566.927 km
Semi-major axis
7,322.007 km
Eccentricity
0.05148
Inclination
81.5651°
RAAN
176.3961°
Arg. of periapsis
95.5558°
True anomaly
264.56031°
Mean anomaly
270.452°
Eccentric anomaly
267.50516°
Mean motion
3.46416 °/min
Orbital period
103.92 mins
BSTAR
0.00098466
Loading maneuver chart data...
Computing Atmospheric mass density...
Loading historical data...
Loading historical data...
Loading historical data...
Loading historical data...
Loading historical data...
Loading historical data...
Loading historical data...

Documentation

Showing up to 5 results
|